Dewpoint
47 47 46 44 47 45 47 48 47 47 47 47 48 49 50 49 49 49 49 49 49 50 50 49 50 50 49 51 52 50 48 43 45 46 45 46 50 50 49 50 51 50 48 35 37 42 38 39 42 39 29 23 40 33 42 39 42 45 42 38 35 33 29 33 37 37 37 37 41 41 41 41 38 39 39 37 38 37 38 37 39 46 48 55 57 58 61 62
47 47 45 46 49 49 46 47 48 48 48 48 48 49 49 49 48 49 49 48 49 50 50 50 50 50 50 50 51 50 44 44 43 41 44 49 49 50 50 50 51 50 44 33 37 43 41 40 42 40 33 23 37 32 39 35 42 38 36 35 31 31 32 39 39 39 38 39 39 42 40 41 39 38 38 39 38 36 36 36 37 39 45 56 57 60 61 62
47 45 45 45 48 47 47 47 48 48 48 49 48 48 48 49 49 49 49 49 49 50 50 50 50 50 51 51 50 49 44 40 37 28 32 47 49 49 49 51 50 49 38 35 37 45 45 45 44 38 37 28 30 26 37 34 40 34 36 33 31 32 35 41 42 41 42 41 40 43 42 40 42 42 37 38 37 35 35 36 37 37 38 53 59 60 61 62
44 44 45 46 47 46 46 46 46 47 47 47 47 47 48 49 48 48 49 49 49 50 50 50 49 51 50 51 49 45 41 40 29 29 30 48 49 49 49 50 50 45 39 36 39 45 48 46 44 39 37 31 30 32 28 30 36 35 33 34 31 38 37 36 42 43 43 44 44 42 42 43 44 43 40 40 39 39 39 39 38 37 37 54 58 59 61 62
46 47 47 45 45 45 47 46 46 47 47 48 47 47 48 48 48 48 49 49 49 50 51 49 49 52 50 49 50 43 36 32 31 32 34 47 49 49 49 49 50 42 41 39 37 47 47 45 44 42 34 29 36 30 25 31 38 39 35 28 27 37 37 40 41 42 41 42 43 43 44 41 47 44 43 43 40 38 40 41 40 40 40 53 57 59 60 61
44 44 45 46 46 45 47 47 46 47 47 47 47 48 48 48 48 48 49 49 49 50 50 49 51 51 49 48 46 45 30 7 29 32 46 47 49 50 49 48 48 43 41 38 36 37 36 36 39 30 32 32 31 29 28 28 34 30 29 33 34 35 35 37 37 38 38 39 41 42 43 44 44 45 45 44 43 40 44 41 40 39 41 50 56 58 59 60
46 44 44 45 45 45 46 46 46 46 47 47 47 47 48 47 48 49 48 49 49 50 49 49 51 50 49 46 43 40 29 27 33 37 45 49 49 49 49 45 45 42 41 38 40 37 35 29 30 29 33 33 33 33 34 32 28 32 31 33 34 35 35 35 35 37 34 35 36 39 43 42 43 42 45 45 45 45 42 39 44 45 46 53 55 58 58 59
45 44 45 45 45 46 46 46 45 46 46 47 47 46 48 48 48 49 49 49 49 50 49 50 50 49 47 44 39 28 29 30 32 40 47 48 44 43 45 40 40 42 40 38 40 40 37 28 30 35 33 30 30 33 33 34 33 25 23 27 30 31 31 32 32 32 33 32 33 36 37 39 42 42 43 44 46 46 43 38 50 53 53 53 54 57 58 59
45 45 45 45 45 44 45 46 45 45 46 47 47 48 48 48 48 49 49 48 48 49 48 50 49 48 49 43 37 27 28 34 37 37 42 41 41 41 42 36 39 41 40 41 42 40 37 31 37 39 30 33 34 32 34 34 29 31 29 28 27 25 23 24 27 28 30 32 33 33 34 37 39 43 42 43 43 44 46 43 44 52 54 55 54 56 57 58
44 44 45 45 44 44 45 46 45 45 46 46 48 48 48 48 49 49 49 48 49 49 49 51 49 47 45 43 39 22 30 42 45 40 41 42 41 40 37 37 39 40 39 41 42 42 39 34 35 39 39 34 34 34 35 35 29 32 33 33 32 32 32 32 32 32 32 32 34 34 32 32 34 39 39 42 43 44 45 45 44 47 49 53 54 55 56 57
44 44 44 44 45 44 45 45 45 46 46 48 48 47 48 49 49 50 49 49 50 49 51 50 48 45 43 45 26 23 39 39 39 39 43 42 40 38 37 37 41 40 40 41 42 41 41 39 41 42 40 29 36 34 36 35 38 39 38 37 36 36 35 33 32 30 31 29 29 28 28 31 34 39 39 40 43 46 46 45 46 48 46 48 52 54 57 57
45 45 44 44 44 45 45 45 45 46 47 48 48 48 49 49 49 50 50 49 49 50 51 49 49 47 43 40 25 28 41 39 39 39 41 41 39 39 40 40 41 41 40 40 41 43 43 43 44 40 23 36 26 30 29 39 37 35 36 35 34 33 33 33 32 31 30 28 28 29 27 28 31 32 36 40 42 43 43 44 46 47 48 47 49 53 55 57
44 43 44 44 44 44 45 45 46 46 48 48 47 48 49 48 50 49 49 48 50 51 50 48 48 46 42 24 28 39 45 38 41 44 40 40 41 41 42 43 44 42 42 42 42 44 44 42 43 39 39 36 29 24 27 32 29 31 32 33 32 31 30 30 31 33 31 27 29 30 15 8 12 19 25 33 40 43 43 43 43 45 50 49 49 51 54 56
44 44 43 44 44 45 45 45 46 47 48 47 48 49 48 49 49 49 47 46 46 50 50 48 48 44 38 24 33 43 46 43 44 39 38 40 40 41 41 43 44 43 45 45 45 44 45 44 44 41 42 38 30 38 30 26 27 23 25 30 32 29 28 29 27 31 31 29 28 28 17 10 7 8 14 22 34 37 38 39 41 43 48 52 53 55 55 57
44 43 43 44 44 44 44 45 46 47 47 47 49 48 48 49 49 48 47 45 48 50 48 46 47 42 25 27 40 46 48 46 36 35 40 40 40 40 40 43 43 45 46 46 46 48 48 46 44 39 34 39 39 36 29 23 24 24 20 16 21 28 28 30 31 29 25 26 27 22 19 16 14 12 15 28 37 36 28 31 33 35 43 48 50 50 51 54
43 43 43 44 44 44 44 45 46 46 46 48 48 47 48 48 48 47 48 50 50 50 48 44 43 37 24 20 28 46 39 33 31 36 40 43 41 40 43 44 45 45 46 46 47 46 46 45 38 36 36 38 35 28 23 21 16 16 19 17 14 22 24 26 30 31 28 23 26 19 15 14 15 21 23 25 32 33 33 39 40 38 39 43 45 47 48 49
44 43 43 43 44 43 44 45 46 46 47 48 47 46 47 47 46 47 47 48 47 49 46 33 42 43 23 30 39 31 31 34 37 38 41 41 41 43 43 42 40 41 43 46 46 45 45 41 41 39 39 33 28 29 24 19 17 15 20 19 20 21 25 26 27 29 31 24 25 21 16 13 10 19 24 31 29 20 15 19 30 36 38 41 43 44 45 46
43 43 43 43 43 43 44 45 46 46 47 47 46 46 45 45 47 41 42 44 46 46 44 44 40 39 28 37 26 29 33 36 38 39 41 39 43 44 42 39 41 40 41 41 41 37 41 35 39 31 33 33 32 27 22 14 13 9 12 15 14 19 29 28 30 29 29 27 23 26 22 19 17 16 17 18 16 35 34 33 33 34 35 37 40 41 43 43
42 42 42 43 42 43 43 44 45 45 46 46 45 45 44 42 43 43 40 41 32 25 22 24 27 15 15 23 32 35 35 38 41 41 35 40 43 45 45 46 43 37 34 33 32 34 37 34 35 31 26 25 25 26 22 18 15 13 12 13 21 24 25 25 28 30 29 27 26 24 26 28 28 28 26 27 24 21 27 31 33 37 39 40 40 40 41 42
42 42 42 43 42 43 43 44 45 45 46 43 42 38 37 32 31 22 36 37 30 28 27 30 35 31 29 31 31 35 39 41 36 35 38 41 43 40 38 40 38 38 32 30 31 34 35 27 23 22 21 22 25 26 25 24 23 24 23 23 21 20 19 23 27 31 30 29 29 27 25 23 24 24 24 27 31 29 23 20 23 28 31 36 40 40 41 41
42 41 42 43 42 43 43 44 45 45 45 43 42 37 31 34 29 22 34 34 36 36 34 33 34 33 28 32 36 35 33 36 38 34 35 41 42 40 35 37 34 29 30 33 32 35 34 25 25 27 29 28 28 31 30 30 27 27 25 24 21 23 20 21 24 27 32 32 29 28 26 24 23 23 23 24 26 28 28 26 24 26 28 32 34 39 40 41
42 41 42 43 42 42 42 44 44 44 44 42 40 38 38 39 42 40 39 23 30 38 37 35 36 34 38 38 39 39 38 35 31 31 37 40 38 34 35 34 31 28 31 31 30 28 27 24 26 28 31 32 32 32 32 30 29 29 27 23 21 18 22 25 26 29 32 33 27 25 27 28 29 31 33 32 31 30 31 32 32 32 31 31 33 37 42 44
41 41 42 43 42 42 43 45 43 43 41 39 38 38 39 40 43 44 41 36 27 34 29 30 30 31 30 36 37 41 34 29 29 30 34 39 36 37 36 31 31 30 29 30 28 28 25 25 28 30 33 33 32 32 31 31 30 28 25 22 18 23 25 20 25 30 29 30 30 29 28 26 25 25 29 30 31 33 32 31 33 36 36 36 36 37 39 44
41 41 43 43 42 43 44 44 42 41 39 40 39 38 40 41 44 44 37 27 23 24 25 27 32 33 30 28 34 32 32 32 33 26 37 38 34 38 33 33 30 29 26 29 29 28 27 29 32 34 34 32 30 31 31 28 24 27 24 23 26 27 25 24 21 28 29 30 30 28 27 24 23 22 21 22 26 30 34 33 35 39 40 41 43 47 46 44
41 42 43 43 44 45 43 42 38 39 40 40 39 39 40 43 44 46 34 26 22 16 35 30 35 36 29 35 38 29 30 34 29 32 37 37 35 36 32 36 31 26 28 29 30 28 28 30 35 33 32 30 31 29 30 29 24 25 30 28 29 29 26 24 26 26 26 26 28 27 22 22 20 21 22 24 25 23 30 36 36 38 41 42 41 42 45 48
41 42 44 44 45 44 42 39 38 39 37 38 39 40 41 43 44 40 22 9 0 11 27 19 35 24 36 27 32 31 35 20 29 31 37 39 42 36 36 24 32 26 28 29 29 30 28 32 33 31 30 31 30 30 31 30 25 25 24 31 31 29 28 28 28 27 23 19 29 26 21 18 22 21 23 24 24 25 25 34 39 39 39 39 39 40 39 42
43 44 44 45 44 43 37 35 39 39 38 38 40 40 43 44 42 38 28 5 -2 14 17 23 28 24 32 29 31 34 12 15 28 34 29 34 34 40 34 24 28 31 32 32 30 21 30 28 30 32 29 28 28 26 30 32 27 22 32 33 32 30 29 29 28 27 24 27 26 27 26 19 17 20 24 25 24 25 26 27 33 34 37 35 34 34 35 36
43 44 44 45 44 42 39 39 40 39 39 41 41 42 43 42 39 34 15 -8 -13 21 18 23 25 33 30 30 31 25 21 27 23 23 30 33 37 33 33 27 28 27 29 30 18 24 27 27 27 30 30 26 25 29 33 34 28 27 34 34 31 31 30 29 28 26 26 24 22 25 29 22 18 21 20 20 20 22 23 25 28 29 28 28 29 30 31 31
43 44 44 44 44 44 41 40 40 39 42 41 42 42 42 38 28 22 7 -12 -0 15 29 21 34 28 28 30 27 28 26 29 21 25 30 35 35 33 24 28 28 26 31 30 21 24 28 30 29 32 29 24 28 31 34 34 31 34 35 36 35 32 29 27 25 24 25 22 19 21 25 18 15 18 15 17 17 18 20 23 22 22 23 24 24 25 27 29
43 43 44 43 42 41 41 40 41 43 42 43 43 42 39 34 27 4 -0 -22 14 7 22 23 25 23 27 23 23 25 24 26 28 28 31 28 30 30 32 34 28 28 26 32 30 27 27 31 35 33 30 29 29 32 34 34 34 35 36 34 33 33 30 26 24 22 23 19 18 17 19 17 14 17 17 18 18 19 19 18 17 19 21 22 23 23 25 26
42 43 43 43 39 40 40 39 41 44 43 43 40 36 31 18 9 -0 -16 -7 20 20 24 23 24 28 24 20 17 22 24 26 24 27 24 27 24 28 26 29 29 26 24 21 21 22 23 25 24 26 36 29 28 28 34 34 35 34 32 30 29 28 29 26 21 21 15 15 20 21 16 18 14 13 18 18 17 17 15 15 16 17 17 19 21 22 23 24
42 42 43 42 42 42 36 38 40 42 43 41 36 31 26 1 10 -9 -13 18 4 12 19 20 26 25 22 23 22 21 21 24 25 24 23 22 22 22 22 20 22 14 10 17 17 21 14 16 22 23 34 25 26 26 26 34 33 32 31 29 23 17 21 17 17 14 15 17 20 19 15 16 15 18 17 15 16 16 16 16 16 16 17 20 21 22 23 25
42 42 43 43 44 39 37 38 41 42 42 38 29 31 12 4 -9 1 4 9 5 18 19 27 24 23 21 20 18 22 25 21 25 23 25 25 23 22 25 24 25 21 13 18 17 17 12 19 22 22 30 25 23 22 24 25 27 29 28 27 20 16 14 12 13 17 18 23 22 16 15 11 18 16 17 14 15 15 15 17 19 18 19 19 21 22 21 24
41 40 40 41 43 40 38 39 41 41 37 36 25 13 17 2 -8 21 12 13 11 24 26 24 23 21 18 13 17 21 17 24 23 22 24 21 21 20 20 24 24 22 21 21 17 18 9 7 13 22 15 24 21 21 23 26 27 28 31 29 23 21 18 13 15 13 17 18 19 18 15 20 18 17 19 17 14 14 14 14 17 19 20 21 20 21 20 22
42 39 40 41 41 42 39 38 41 40 35 28 19 13 3 -6 -1 5 11 17 23 26 23 23 18 16 17 16 18 22 22 19 24 22 19 20 18 20 20 21 24 24 21 15 15 18 13 13 16 25 25 24 19 23 27 28 30 29 30 32 25 23 27 19 21 20 20 18 17 19 20 23 23 27 24 18 13 13 14 15 17 17 18 21 20 21 21 21
39 37 39 39 41 37 37 39 40 38 32 27 17 9 2 5 2 15 25 28 26 22 23 20 17 15 14 13 17 19 23 20 21 20 17 19 21 20 23 24 22 24 21 17 19 12 17 7 17 24 23 15 18 23 26 28 15 20 22 18 23 29 28 25 23 25 24 21 17 26 22 23 28 29 22 16 15 15 15 15 17 18 19 21 21 21 21 22
36 38 34 39 39 36 34 39 39 35 31 25 20 9 10 15 15 21 27 27 25 25 20 8 10 14 13 13 16 18 21 23 21 19 14 19 18 23 22 24 25 22 24 24 16 21 16 15 22 20 14 16 21 25 29 28 26 24 13 15 26 31 31 25 18 16 13 9 17 20 17 20 21 21 20 18 17 17 17 17 18 20 20 20 21 21 22 23
36 39 39 38 35 34 35 38 38 35 34 26 21 21 12 19 23 24 27 28 26 24 19 16 14 18 13 17 14 19 21 17 16 19 16 17 14 25 23 22 24 20 21 26 20 16 24 14 10 21 15 18 22 26 26 22 26 17 15 25 22 14 12 18 20 14 10 8 11 12 17 16 20 19 16 16 17 19 19 20 20 19 18 18 19 20 22 23
35 33 29 32 35 32 35 38 35 36 24 20 21 18 22 22 25 26 28 30 27 23 19 20 17 16 20 17 18 21 20 15 17 16 13 14 12 23 21 22 20 19 16 24 18 16 24 13 6 19 15 17 20 21 13 16 20 27 29 20 20 25 18 15 15 19 17 12 8 12 13 18 20 13 11 12 15 18 18 20 19 18 18 18 20 21 23 24
33 27 23 34 34 32 33 39 32 28 22 14 18 18 22 21 26 28 29 30 24 23 20 20 22 19 22 20 21 19 20 20 18 17 18 19 18 24 21 21 15 17 14 20 22 27 18 23 5 5 19 18 15 17 17 18 15 12 14 14 15 16 18 22 18 16 11 6 5 11 8 18 16 10 11 13 16 18 17 17 18 17 19 21 22 23 24 25
29 29 28 35 34 33 36 30 26 21 19 20 22 20 18 23 26 26 28 27 24 29 25 23 22 21 20 23 21 22 18 18 19 16 18 19 17 10 23 18 15 12 13 15 12 18 20 17 11 15 15 6 12 22 19 22 22 15 15 15 14 12 8 -1 -1 18 15 7 8 10 6 14 15 12 14 16 17 17 17 16 16 16 18 20 23 24 24 24
25 18 22 33 31 34 30 22 24 19 22 21 21 24 26 30 22 23 23 23 24 20 27 27 27 23 22 22 23 20 20 19 17 17 18 14 19 19 22 18 13 12 8 4 10 19 26 21 21 14 11 8 12 16 22 26 27 23 16 16 17 15 16 4 -9 4 14 12 15 15 12 10 16 14 16 17 17 16 15 14 13 14 17 20 23 24 25 25
27 19 31 35 29 32 22 16 22 23 21 22 22 23 22 24 23 22 21 23 21 24 26 26 25 25 24 20 24 22 24 17 17 17 20 21 21 23 19 14 12 11 12 11 19 26 27 19 14 14 11 6 12 21 26 22 26 21 20 21 17 13 17 14 11 16 13 14 7 8 10 12 22 19 16 17 16 15 13 11 10 10 13 19 24 25 25 24
29 27 22 32 30 30 25 7 12 16 20 16 19 21 22 24 22 20 22 22 24 24 22 19 27 27 24 18 20 20 24 10 16 20 14 21 14 22 20 19 13 12 15 20 21 26 17 20 17 4 -4 -7 16 19 19 15 19 15 13 15 17 14 19 18 18 17 11 14 12 5 -3 6 22 18 13 16 15 12 10 8 8 8 10 14 22 26 25 23
27 26 27 28 24 27 18 19 15 17 15 13 16 18 21 21 19 23 22 22 21 24 25 24 26 25 23 19 15 13 12 12 10 20 18 17 12 23 19 15 15 15 20 23 23 29 22 17 13 -5 -10 -13 -14 -15 -12 -1 7 12 15 16 15 16 12 13 5 9 -3 6 14 11 6 7 14 12 11 15 14 12 10 7 5 6 6 9 17 26 25 22
21 8 18 21 19 24 23 24 22 20 15 12 14 16 18 16 20 21 23 24 22 22 23 25 24 21 18 13 9 1 4 9 12 9 13 7 8 9 18 15 15 20 23 21 21 28 22 20 17 12 1 -7 -5 -5 -1 15 13 12 10 11 11 13 12 12 13 13 6 8 8 10 10 6 5 4 12 15 13 11 9 5 3 3 3 7 12 22 25 21
26 14 14 12 19 17 17 22 21 20 14 17 7 13 16 16 16 15 20 18 22 20 21 19 17 16 16 8 11 7 7 7 8 6 10 6 7 11 14 15 13 21 20 17 19 18 9 2 6 12 12 10 7 8 14 16 11 9 7 6 7 6 7 9 10 8 12 9 1 7 9 8 8 10 12 16 13 11 7 2 2 2 3 5 7 16 27 19
17 20 16 14 5 8 9 13 22 21 21 17 12 15 16 17 15 11 17 22 19 18 16 15 17 16 12 7 8 5 5 3 1 3 11 9 8 11 10 16 19 19 16 15 18 12 8 3 6 14 14 13 13 11 10 7 6 6 5 5 4 4 5 11 11 10 10 8 3 5 8 9 9 10 14 14 9 5 3 2 2 1 2 3 5 10 22 18
20 22 19 20 13 13 17 16 21 19 20 20 20 19 18 17 14 14 14 13 11 13 13 9 11 12 12 13 11 9 10 1 4 1 4 8 10 8 8 10 20 18 14 14 16 17 13 7 12 14 11 10 8 7 5 5 6 6 6 7 7 7 8 8 8 9 10 10 11 11 11 11 13 14 14 12 8 5 2 3 2 2 2 4 5 9 20 14
17 15 16 20 18 15 17 21 21 16 16 23 16 17 17 17 16 16 15 15 8 9 19 12 10 11 12 12 10 7 9 7 7 8 9 8 12 10 8 9 8 15 15 15 15 11 10 2 13 11 7 6 5 6 8 8 7 8 9 9 10 10 10 12 12 12 11 11 12 12 12 12 16 14 12 9 7 5 3 2 1 3 3 3 4 14 17 10
23 22 22 19 14 19 19 16 17 16 11 16 14 12 17 19 16 15 12 13 6 7 15 10 13 14 15 12 12 9 11 12 12 11 13 13 11 14 10 10 14 11 13 14 15 14 13 8 10 9 5 3 7 7 7 7 9 11 11 11 10 11 12 11 11 12 12 13 13 13 13 12 15 12 9 9 5 5 4 4 3 3 2 3 5 18 11 7
25 25 21 20 16 24 23 15 15 12 8 13 14 13 17 16 17 15 12 13 14 14 15 15 15 12 13 13 11 12 15 15 16 17 16 16 16 15 15 13 13 13 13 12 15 13 12 9 6 6 5 3 6 8 8 11 11 8 7 6 8 11 12 13 13 14 15 13 10 12 11 14 13 11 8 7 5 4 4 3 4 4 4 3 10 14 8 6